TimeCST,TemperatureF,Dew PointF,Humidity,Sea Level PressureIn,VisibilityMPH,Wind Direction,Wind SpeedMPH,Gust SpeedMPH,PrecipitationIn,Events,Conditions,WindDirDegrees,DateUTC
12:15 AM,25.9,23.9,92,30.29,5.0,Calm,Calm,-,N/A,,Clear,0,2013-11-19 06:15:00
12:35 AM,27.1,25.2,92,30.29,5.0,Calm,Calm,-,N/A,,Clear,0,2013-11-19 06:35:00
12:55 AM,24.6,22.5,91,30.30,4.0,SSW,3.5,-,N/A,,Clear,200,2013-11-19 06:55:00
1:15 AM,24.6,22.8,93,30.29,4.0,Calm,Calm,-,N/A,,Clear,0,2013-11-19 07:15:00
1:35 AM,23.5,21.6,92,30.28,5.0,East,4.6,-,N/A,,Clear,80,2013-11-19 07:35:00
1:55 AM,23.4,21.6,93,30.28,7.0,NE,4.6,-,N/A,,Clear,50,2013-11-19 07:55:00
2:15 AM,23.0,21.0,92,30.29,5.0,Calm,Calm,-,N/A,,Clear,0,2013-11-19 08:15:00
2:35 AM,23.2,21.2,92,30.29,5.0,SSW,4.6,-,N/A,,Clear,210,2013-11-19 08:35:00
2:55 AM,24.6,22.6,92,30.29,5.0,Calm,Calm,-,N/A,,Clear,0,2013-11-19 08:55:00
3:15 AM,24.6,22.6,92,30.29,5.0,SE,3.5,-,N/A,,Clear,140,2013-11-19 09:15:00
3:35 AM,23.9,21.7,91,30.29,7.0,Calm,Calm,-,N/A,,Clear,0,2013-11-19 09:35:00
3:55 AM,22.8,20.5,91,30.28,7.0,East,4.6,-,N/A,,Clear,90,2013-11-19 09:55:00
4:15 AM,24.3,21.4,89,30.29,10.0,SSE,3.5,-,N/A,,Clear,160,2013-11-19 10:15:00
4:35 AM,23.9,21.6,91,30.28,7.0,SE,4.6,-,N/A,,Clear,140,2013-11-19 10:35:00
4:55 AM,24.6,21.9,89,30.28,7.0,ESE,3.5,-,N/A,,Clear,110,2013-11-19 10:55:00
5:15 AM,24.6,21.6,88,30.28,10.0,SSE,5.8,-,N/A,,Clear,150,2013-11-19 11:15:00
5:35 AM,24.6,21.9,89,30.28,10.0,ESE,4.6,-,N/A,,Clear,120,2013-11-19 11:35:00
5:55 AM,23.4,20.3,88,30.29,10.0,Calm,Calm,-,N/A,,Clear,0,2013-11-19 11:55:00
6:15 AM,24.6,21.4,87,30.28,10.0,SE,5.8,-,N/A,,Clear,130,2013-11-19 12:15:00
6:35 AM,24.6,21.2,87,30.28,10.0,SE,4.6,-,N/A,,Clear,140,2013-11-19 12:35:00
6:55 AM,24.6,21.4,87,30.29,10.0,SE,4.6,-,N/A,,Clear,140,2013-11-19 12:55:00
7:15 AM,24.6,21.0,86,30.29,10.0,SE,4.6,-,N/A,,Clear,130,2013-11-19 13:15:00
7:35 AM,24.6,21.0,86,30.28,10.0,SSE,4.6,-,N/A,,Clear,150,2013-11-19 13:35:00
7:55 AM,26.1,22.8,88,30.28,10.0,SSE,5.8,-,N/A,,Clear,150,2013-11-19 13:55:00
8:15 AM,29.7,25.7,85,30.29,10.0,SSE,6.9,-,N/A,,Clear,150,2013-11-19 14:15:00
8:35 AM,30.2,24.8,80,30.29,10.0,SSE,10.4,-,N/A,,Clear,150,2013-11-19 14:35:00
8:55 AM,32.0,26.4,80,30.28,10.0,SSE,10.4,-,N/A,,Clear,150,2013-11-19 14:55:00
9:15 AM,32.0,25.2,76,30.28,10.0,SSE,12.7,18.4,N/A,,Clear,150,2013-11-19 15:15:00
9:35 AM,34.3,27.3,76,30.28,10.0,SSE,12.7,-,N/A,,Clear,150,2013-11-19 15:35:00
9:55 AM,34.3,25.9,71,30.28,10.0,SSE,13.8,-,N/A,,Clear,160,2013-11-19 15:55:00
10:15 AM,36.9,27.1,68,30.27,10.0,SSE,15.0,-,N/A,,Clear,150,2013-11-19 16:15:00
10:35 AM,36.9,26.2,65,30.27,10.0,SSE,12.7,-,N/A,,Clear,160,2013-11-19 16:35:00
10:55 AM,37.4,26.1,64,30.26,10.0,SSE,13.8,-,N/A,,Clear,150,2013-11-19 16:55:00
11:15 AM,39.4,26.4,60,30.25,10.0,SSE,15.0,-,N/A,,Clear,150,2013-11-19 17:15:00
11:35 AM,39.7,25.5,57,30.25,10.0,SSE,13.8,-,N/A,,Clear,150,2013-11-19 17:35:00
11:55 AM,40.6,26.2,57,30.24,10.0,South,13.8,-,N/A,,Clear,170,2013-11-19 17:55:00
12:15 PM,41.9,25.3,52,30.23,10.0,SSE,16.1,20.7,N/A,,Clear,160,2013-11-19 18:15:00
12:35 PM,42.8,25.7,51,30.22,10.0,SSE,12.7,18.4,N/A,,Clear,160,2013-11-19 18:35:00
12:55 PM,43.5,25.7,50,30.20,10.0,SSE,16.1,-,N/A,,Clear,150,2013-11-19 18:55:00
1:15 PM,44.6,25.2,46,30.19,10.0,SSE,16.1,19.6,N/A,,Clear,150,2013-11-19 19:15:00
1:35 PM,46.9,27.7,47,30.18,10.0,SSE,17.3,-,N/A,,Clear,150,2013-11-19 19:35:00
1:55 PM,45.7,26.4,47,30.17,10.0,SSE,16.1,23.0,N/A,,Clear,150,2013-11-19 19:55:00
2:15 PM,46.9,27.7,47,30.16,10.0,SSE,17.3,21.9,N/A,,Clear,160,2013-11-19 20:15:00
2:35 PM,46.9,27.9,48,30.16,10.0,SSE,15.0,24.2,N/A,,Clear,150,2013-11-19 20:35:00
2:55 PM,46.9,28.8,49,30.16,10.0,SSE,13.8,-,N/A,,Clear,160,2013-11-19 20:55:00
3:15 PM,46.6,28.6,50,30.15,10.0,SSE,16.1,-,N/A,,Clear,150,2013-11-19 21:15:00
3:35 PM,44.6,27.0,50,30.15,10.0,SSE,16.1,23.0,N/A,,Clear,150,2013-11-19 21:35:00
3:55 PM,43.7,27.3,53,30.14,10.0,SSE,15.0,-,N/A,,Clear,150,2013-11-19 21:55:00
4:15 PM,43.0,27.5,54,30.14,10.0,SE,13.8,-,N/A,,Clear,140,2013-11-19 22:15:00
4:35 PM,41.9,27.9,58,30.14,10.0,SE,9.2,-,N/A,,Clear,140,2013-11-19 22:35:00
4:55 PM,40.6,28.2,61,30.14,10.0,SE,9.2,-,N/A,,Clear,140,2013-11-19 22:55:00
5:15 PM,39.9,28.2,63,30.14,10.0,SE,9.2,-,N/A,,Clear,140,2013-11-19 23:15:00
5:35 PM,39.4,27.5,62,30.14,10.0,SE,10.4,-,N/A,,Clear,140,2013-11-19 23:35:00
5:55 PM,40.1,27.5,61,30.13,10.0,SE,15.0,19.6,N/A,,Clear,140,2013-11-19 23:55:00
6:15 PM,40.5,27.9,61,30.13,10.0,SE,13.8,20.7,N/A,,Clear,140,2013-11-20 00:15:00
6:35 PM,39.4,27.1,62,30.13,10.0,SSE,15.0,-,N/A,,Clear,150,2013-11-20 00:35:00
6:55 PM,39.4,27.5,62,30.12,10.0,SSE,15.0,20.7,N/A,,Clear,150,2013-11-20 00:55:00
7:15 PM,39.4,27.5,62,30.12,10.0,SSE,17.3,23.0,N/A,,Clear,150,2013-11-20 01:15:00
7:35 PM,39.4,27.3,62,30.12,10.0,SSE,17.3,23.0,N/A,,Clear,150,2013-11-20 01:35:00
8:15 PM,39.4,27.5,62,30.13,10.0,SSE,16.1,20.7,N/A,,Clear,150,2013-11-20 02:15:00
8:35 PM,39.4,27.3,62,30.12,10.0,SSE,15.0,20.7,N/A,,Clear,150,2013-11-20 02:35:00
8:55 PM,39.4,27.1,62,30.12,10.0,SSE,15.0,-,N/A,,Clear,160,2013-11-20 02:55:00
9:15 PM,39.4,26.8,61,30.12,10.0,SSE,13.8,23.0,N/A,,Clear,160,2013-11-20 03:15:00
9:35 PM,39.4,27.5,62,30.12,10.0,SSE,17.3,20.7,N/A,,Clear,160,2013-11-20 03:35:00
9:55 PM,39.4,27.5,62,30.11,10.0,SSE,18.4,24.2,N/A,,Clear,150,2013-11-20 03:55:00
10:15 PM,39.4,27.3,62,30.11,10.0,SSE,17.3,26.5,N/A,,Scattered Clouds,160,2013-11-20 04:15:00
10:35 PM,39.4,27.1,62,30.11,10.0,SSE,19.6,26.5,N/A,,Clear,160,2013-11-20 04:35:00
10:55 PM,39.4,27.1,62,30.11,10.0,SSE,16.1,26.5,N/A,,Clear,160,2013-11-20 04:55:00
11:15 PM,39.4,26.6,60,30.11,10.0,SSE,17.3,25.3,N/A,,Scattered Clouds,150,2013-11-20 05:15:00
11:35 PM,39.4,26.2,59,30.10,10.0,SSE,17.3,25.3,N/A,,Scattered Clouds,150,2013-11-20 05:35:00
11:55 PM,38.5,25.9,61,30.10,10.0,SSE,15.0,24.2,N/A,,Scattered Clouds,150,2013-11-20 05:55:00